W7KKE-3 Weather Reports


time (UTC)temp
C
wind
direction
speed
KPH
gust
KPH
rain 1hr
cm
rain 24hr
cm
rain mn
cm
humidity
%
barometer
mb
20260507202650 17 302 19.3 25.7 0.00 0.00 0.00 64 1015.8
20260507202149 17 322 12.9 25.7 0.00 0.00 0.00 66 1015.9
20260507201152 17 333 14.5 25.7 0.00 0.00 0.00 66 1015.9
20260507200649 17 326 17.7 24.1 0.00 0.00 0.00 64 1015.9
20260507200149 16 336 14.5 24.1 0.00 0.00 0.00 66 1015.9
20260507195650 16 2 14.5 24.1 0.00 0.00 0.00 66 1015.9
20260507195150 16 320 17.7 25.7 0.00 0.00 0.00 65 1016.0
20260507194649 17 351 17.7 25.7 0.00 0.00 0.00 65 1016.0
20260507194151 17 323 19.3 25.7 0.00 0.00 0.00 65 1016.0
20260507193649 17 323 16.1 24.1 0.00 0.00 0.00 65 1016.1
20260507193151 17 289 16.1 22.5 0.00 0.00 0.00 65 1016.1
20260507192650 17 316 14.5 22.5 0.00 0.00 0.00 66 1016.1
20260507192149 17 326 14.5 22.5 0.00 0.00 0.00 66 1016.2
20260507191649 17 334 14.5 22.5 0.00 0.00 0.00 66 1016.2
20260507191151 17 326 12.9 25.7 0.00 0.00 0.00 67 1016.2
20260507190649 16 312 12.9 25.7 0.00 0.00 0.00 67 1016.2
20260507190149 16 334 17.7 25.7 0.00 0.00 0.00 66 1016.2
20260507185650 16 323 12.9 24.1 0.00 0.00 0.00 66 1016.3
20260507185149 16 322 11.3 22.5 0.00 0.00 0.00 67 1016.3
20260507184649 16 326 12.9 24.1 0.00 0.00 0.00 67 1016.3
20260507184151 16 327 14.5 24.1 0.00 0.00 0.00 68 1016.3
20260507183649 16 341 16.1 24.1 0.00 0.00 0.00 68 1016.3
20260507183149 16 333 17.7 25.7 0.00 0.00 0.00 68 1016.3
20260507182650 16 315 16.1 25.7 0.00 0.00 0.00 67 1016.4
20260507182149 16 326 19.3 25.7 0.00 0.00 0.00 67 1016.4
20260507181649 16 322 17.7 24.1 0.00 0.00 0.00 67 1016.4
20260507181151 16 327 14.5 27.4 0.00 0.00 0.00 68 1016.5
20260507180649 16 329 17.7 27.4 0.00 0.00 0.00 68 1016.5
20260507180149 16 324 17.7 27.4 0.00 0.00 0.00 67 1016.5
20260507175650 16 322 14.5 25.7 0.00 0.00 0.00 68 1016.6
20260507175149 16 320 16.1 25.7 0.00 0.00 0.00 68 1016.7
20260507174649 15 298 12.9 25.7 0.00 0.00 0.00 70 1016.6
20260507174151 15 341 16.1 25.7 0.00 0.00 0.00 69 1016.6
20260507173650 15 312 14.5 25.7 0.00 0.00 0.00 70 1016.6
20260507173149 14 341 12.9 25.7 0.00 0.00 0.00 72 1016.6
20260507172650 14 324 16.1 24.1 0.00 0.00 0.00 71 1016.7
20260507172149 14 320 14.5 24.1 0.00 0.00 0.00 71 1016.8
20260507171649 14 323 16.1 22.5 0.00 0.00 0.00 71 1016.8
20260507171151 14 340 14.5 22.5 0.00 0.00 0.00 72 1016.8
20260507170649 14 345 14.5 22.5 0.00 0.00 0.00 72 1016.8
20260507165650 13 347 14.5 22.5 0.00 0.00 0.00 72 1016.8
20260507165149 14 319 14.5 20.9 0.00 0.00 0.00 72 1016.8
20260507164649 13 341 12.9 20.9 0.00 0.00 0.00 72 1016.8
20260507164150 14 333 14.5 17.7 0.00 0.00 0.00 73 1016.9
20260507163649 13 324 12.9 17.7 0.00 0.00 0.00 73 1016.8
20260507163148 13 326 11.3 16.1 0.00 0.00 0.00 73 1016.9
20260507162649 13 344 9.7 16.1 0.00 0.00 0.00 73 1016.9
20260507162149 13 323 8.0 16.1 0.00 0.00 0.00 74 1016.9
20260507161649 13 341 11.3 14.5 0.00 0.00 0.00 75 1016.9
20260507161150 13 313 9.7 16.1 0.00 0.00 0.00 75 1016.9
20260507160648 12 309 6.4 16.1 0.00 0.00 0.00 76 1016.9
20260507160149 12 320 9.7 16.1 0.00 0.00 0.00 76 1016.9
20260507155649 12 333 11.3 14.5 0.00 0.00 0.00 75 1016.9
20260507155149 12 331 8.0 14.5 0.00 0.00 0.00 76 1016.9
20260507154648 12 315 11.3 16.1 0.00 0.00 0.00 77 1016.9
20260507154149 12 329 6.4 16.1 0.00 0.00 0.00 77 1016.9
20260507153649 12 323 8.0 16.1 0.00 0.00 0.00 78 1017.0
20260507153148 12 320 8.0 14.5 0.00 0.00 0.00 78 1016.9
20260507152649 12 323 8.0 12.9 0.00 0.00 0.00 78 1017.0
20260507152149 12 331 8.0 12.9 0.00 0.00 0.00 78 1016.9
20260507151649 12 324 4.8 12.9 0.00 0.00 0.00 79 1016.9
20260507151151 12 323 6.4 12.9 0.00 0.00 0.00 79 1016.8
20260507150648 12 320 9.7 12.9 0.00 0.00 0.00 79 1016.8
20260507145649 12 333 6.4 12.9 0.00 0.00 0.00 80 1016.8
20260507145149 11 340 8.0 11.3 0.00 0.00 0.00 80 1016.9
20260507144649 11 330 6.4 9.7 0.00 0.00 0.00 81 1016.9
20260507144151 11 323 4.8 8.0 0.00 0.00 0.00 81 1016.9
20260507143649 11 319 0.0 8.0 0.00 0.00 0.00 81 1016.9
20260507143149 11 313 0.0 8.0 0.00 0.00 0.00 82 1016.9
20260507142650 11 7 3.2 9.7 0.00 0.00 0.00 82 1016.8
20260507142149 11 2 1.6 9.7 0.00 0.00 0.00 82 1016.8
20260507141648 11 334 3.2 9.7 0.00 0.00 0.00 82 1016.8
20260507141151 11 8 1.6 6.4 0.00 0.00 0.00 82 1016.8
20260507140649 10 338 0.0 6.4 0.00 0.00 0.00 81 1016.8
20260507135649 10 0 0.0 0.0 0.00 0.00 0.00 81 1016.7
20260507135149 10 0 0.0 4.8 0.00 0.00 0.00 81 1016.6
20260507134648 10 337 0.0 4.8 0.00 0.00 0.00 80 1016.6
20260507134151 10 23 0.0 4.8 0.00 0.00 0.00 80 1016.6
20260507133649 10 0 0.0 6.4 0.00 0.00 0.00 80 1016.6
20260507133148 11 345 0.0 6.4 0.00 0.00 0.00 80 1016.6
20260507132651 11 327 0.0 6.4 0.00 0.00 0.00 80 1016.5
20260507132149 11 12 1.6 6.4 0.00 0.00 0.00 80 1016.5
20260507131649 11 26 0.0 6.4 0.00 0.00 0.00 79 1016.5
20260507131151 11 309 0.0 6.4 0.00 0.00 0.00 79 1016.5
20260507130649 11 345 0.0 3.2 0.00 0.00 0.00 79 1016.5
20260507130150 11 320 0.0 3.2 0.00 0.00 0.00 79 1016.6
20260507125648 11 306 0.0 3.2 0.00 0.00 0.00 79 1016.6
20260507124647 11 19 0.0 9.7 0.00 0.00 0.00 79 1016.6
20260507124148 11 344 0.0 9.7 0.00 0.00 0.00 79 1016.6
20260507123648 11 357 1.6 9.7 0.00 0.00 0.00 79 1016.6
20260507123148 11 317 4.8 9.7 0.00 0.00 0.00 79 1016.7
20260507122653 11 5 1.6 8.0 0.00 0.00 0.00 79 1016.7
20260507122151 11 348 3.2 14.5 0.00 0.00 0.00 79 1016.7
20260507121648 11 355 1.6 14.5 0.00 0.00 0.00 79 1016.8
20260507121151 11 347 3.2 14.5 0.00 0.00 0.00 80 1016.8
20260507120650 11 317 1.6 11.3 0.00 0.00 0.00 80 1016.9
20260507115648 11 345 4.8 9.7 0.00 0.00 0.00 80 1016.9
20260507114648 11 354 4.8 9.7 0.00 0.00 0.00 80 1016.9
20260507114151 11 1 3.2 16.1 0.00 0.00 0.00 80 1017.0
20260507113649 11 348 4.8 16.1 0.00 0.00 0.00 80 1017.0
20260507113148 11 337 4.8 16.1 0.00 0.00 0.00 80 1017.0
20260507112648 11 7 9.7 12.9 0.00 0.00 0.00 81 1017.0
20260507112150 11 336 3.2 8.0 0.00 0.00 0.00 81 1017.0
20260507111649 11 341 4.8 11.3 0.00 0.00 0.00 81 1017.1
20260507110649 11 0 3.2 11.3 0.00 0.00 0.00 81 1017.1
20260507110148 11 336 3.2 6.4 0.00 0.00 0.00 81 1017.1
20260507105650 11 0 0.0 1.6 0.00 0.00 0.00 81 1017.0
20260507105149 11 0 0.0 0.0 0.00 0.00 0.00 81 1017.1
20260507104649 11 0 0.0 0.0 0.00 0.00 0.00 81 1017.2
20260507104151 11 0 0.0 0.0 0.00 0.00 0.00 81 1017.3
20260507103649 11 0 0.0 0.0 0.00 0.00 0.00 81 1017.3
20260507103148 11 0 0.0 0.0 0.00 0.00 0.00 81 1017.4
20260507102650 11 0 0.0 0.0 0.00 0.00 0.00 81 1017.4
20260507102150 12 0 0.0 0.0 0.00 0.00 0.00 80 1017.5
20260507101649 12 0 0.0 3.2 0.00 0.00 0.00 80 1017.5
20260507101151 12 0 0.0 3.2 0.00 0.00 0.00 80 1017.5
20260507100650 12 352 0.0 3.2 0.00 0.00 0.00 80 1017.5
20260507095650 12 0 0.0 0.0 0.00 0.00 0.00 80 1017.6
20260507094648 12 0 0.0 9.7 0.00 0.00 0.00 80 1017.6
20260507094151 12 336 0.0 9.7 0.00 0.00 0.00 80 1017.7
20260507093649 12 324 0.0 6.4 0.00 0.00 0.00 80 1017.7
20260507093148 12 0 0.0 0.0 0.00 0.00 0.00 81 1017.8
20260507092650 12 0 0.0 0.0 0.00 0.00 0.00 81 1017.8
20260507092148 12 0 0.0 0.0 0.00 0.00 0.00 80 1017.8
20260507091648 12 282 0.0 0.0 0.00 0.00 0.00 80 1017.9
20260507091150 12 0 0.0 6.4 0.00 0.00 0.00 80 1017.9
20260507090648 12 0 0.0 6.4 0.00 0.00 0.00 80 1018.0
20260507090149 12 341 0.0 6.4 0.00 0.00 0.00 81 1018.0
20260507085650 12 0 1.6 6.4 0.00 0.00 0.00 81 1018.0
20260507085148 12 0 0.0 6.4 0.00 0.00 0.00 81 1018.0
20260507084649 12 338 0.0 6.4 0.00 0.00 0.00 80 1018.1
20260507084152 12 306 3.2 3.2 0.00 0.00 0.00 80 1018.1
20260507083649 12 131 0.0 3.2 0.00 0.00 0.00 80 1018.1
20260507083148 12 0 0.0 6.4 0.00 0.00 0.00 80 1018.1
20260507082148 12 0 0.0 6.4 0.00 0.00 0.00 80 1018.1
20260507081649 12 333 1.6 6.4 0.00 0.00 0.00 80 1018.1
20260507080648 12 345 0.0 11.3 0.00 0.00 0.00 80 1018.1
20260507075651 12 324 0.0 11.3 0.00 0.00 0.00 80 1018.0
20260507075148 12 347 3.2 8.0 0.00 0.00 0.00 80 1018.0
20260507074648 12 345 0.0 14.5 0.00 0.00 0.00 80 1018.0
20260507074151 12 355 4.8 14.5 0.00 0.00 0.00 80 1018.1
20260507073648 12 320 4.8 14.5 0.00 0.00 0.00 81 1018.1
20260507073148 12 350 1.6 11.3 0.00 0.00 0.00 81 1018.1
20260507072649 12 320 6.4 8.0 0.00 0.00 0.00 81 1018.0
20260507072148 12 352 3.2 8.0 0.00 0.00 0.00 81 1018.0
20260507071151 12 357 4.8 11.3 0.00 0.00 0.00 81 1018.0
20260507070649 12 351 3.2 11.3 0.00 0.00 0.00 81 1018.1
20260507070148 12 347 0.0 11.3 0.00 0.00 0.00 81 1018.0
20260507065649 12 0 0.0 8.0 0.00 0.00 0.00 81 1018.1
20260507065148 12 326 1.6 8.0 0.00 0.00 0.00 81 1018.0
20260507064648 12 334 1.6 16.1 0.00 0.00 0.00 81 1018.0
20260507064150 12 326 8.0 16.1 0.00 0.00 0.00 81 1018.1
20260507063648 12 322 8.0 16.1 0.00 0.00 0.00 81 1018.1
20260507063148 12 340 4.8 4.8 0.00 0.00 0.00 81 1018.1
20260507062650 12 319 0.0 9.7 0.00 0.00 0.00 81 1018.2
20260507062148 12 338 1.6 9.7 0.00 0.00 0.00 81 1018.2
20260507061649 12 348 3.2 9.7 0.00 0.00 0.00 81 1018.2
20260507061150 12 340 3.2 6.4 0.00 0.00 0.00 81 1018.2
20260507060648 12 340 1.6 11.3 0.00 0.00 0.00 81 1018.2
20260507060148 12 350 0.0 11.3 0.00 0.00 0.00 81 1018.2
20260507055650 12 345 0.0 11.3 0.00 0.00 0.00 81 1018.3
20260507055148 12 333 4.8 14.5 0.00 0.00 0.00 81 1018.3
20260507054150 12 344 1.6 14.5 0.00 0.00 0.00 81 1018.3
20260507053648 12 337 9.7 11.3 0.00 0.00 0.00 81 1018.3
20260507053148 13 337 8.0 11.3 0.00 0.00 0.00 82 1018.3
20260507052148 13 324 4.8 11.3 0.00 0.00 0.00 82 1018.4
20260507051648 13 330 3.2 9.7 0.00 0.00 0.00 82 1018.4
20260507051151 13 345 4.8 9.7 0.00 0.00 0.00 82 1018.4
20260507050648 13 317 6.4 8.0 0.00 0.00 0.00 82 1018.4
20260507050148 13 308 3.2 4.8 0.00 0.00 0.00 82 1018.4
20260507045650 13 315 3.2 11.3 0.00 0.00 0.00 82 1018.3
20260507045149 13 18 4.8 11.3 0.00 0.00 0.00 82 1018.4
20260507044648 13 333 1.6 11.3 0.00 0.00 0.00 82 1018.4
20260507044150 13 15 6.4 17.7 0.00 0.00 0.00 82 1018.4
20260507043649 13 347 4.8 17.7 0.00 0.00 0.00 82 1018.5
20260507043149 13 319 8.0 17.7 0.00 0.00 0.00 82 1018.5
20260507042149 13 322 8.0 17.7 0.00 0.00 0.00 82 1018.4
20260507041648 13 302 9.7 16.1 0.00 0.00 0.00 82 1018.5
20260507041152 13 5 9.7 12.9 0.00 0.00 0.00 82 1018.4
20260507040648 13 326 6.4 12.9 0.00 0.00 0.00 82 1018.4
20260507035649 13 7 8.0 11.3 0.00 0.00 0.00 82 1018.4
20260507035149 13 348 6.4 11.3 0.00 0.00 0.00 82 1018.3
20260507034150 13 330 4.8 14.5 0.00 0.00 0.00 82 1018.3
20260507033648 13 350 4.8 14.5 0.00 0.00 0.00 82 1018.2
20260507033148 13 348 8.0 14.5 0.00 0.00 0.00 82 1018.2
20260507032649 13 312 8.0 12.9 0.00 0.00 0.00 82 1018.2
20260507032150 13 347 6.4 12.9 0.00 0.00 0.00 82 1018.2
20260507031649 13 327 6.4 12.9 0.00 0.00 0.00 82 1018.2
20260507031151 13 319 6.4 8.0 0.00 0.00 0.00 82 1018.1
20260507030148 13 327 1.6 8.0 0.00 0.00 0.00 82 1018.1
20260507025650 13 331 4.8 9.7 0.00 0.00 0.00 82 1018.2
20260507025148 13 337 6.4 9.7 0.00 0.00 0.00 82 1018.2
20260507024648 13 322 6.4 9.7 0.00 0.00 0.00 81 1018.1
20260507024150 13 351 6.4 9.7 0.00 0.00 0.00 81 1018.1
20260507023648 13 333 6.4 9.7 0.00 0.00 0.00 81 1018.0
20260507023148 13 329 1.6 9.7 0.00 0.00 0.00 81 1018.1
20260507022649 13 330 4.8 9.7 0.00 0.00 0.00 81 1018.0
20260507022149 13 343 4.8 8.0 0.00 0.00 0.00 81 1018.0
20260507021648 13 350 6.4 12.9 0.00 0.00 0.00 81 1018.0
20260507021150 13 313 4.8 12.9 0.00 0.00 0.00 81 1018.1
20260507020649 14 341 6.4 12.9 0.00 0.00 0.00 81 1018.1
20260507020148 14 337 8.0 9.7 0.00 0.00 0.00 80 1018.1
20260507015649 14 357 6.4 9.7 0.00 0.00 0.00 80 1018.1
20260507015149 14 338 3.2 9.7 0.00 0.00 0.00 80 1018.1
20260507014648 14 319 4.8 9.7 0.00 0.00 0.00 80 1018.2
20260507014150 14 313 3.2 8.0 0.00 0.00 0.00 80 1018.2
20260507013648 14 306 1.6 8.0 0.00 0.00 0.00 80 1018.2
20260507013149 14 317 4.8 4.8 0.00 0.00 0.00 80 1018.3
20260507012650 14 306 3.2 4.8 0.00 0.00 0.00 80 1018.3
20260507012150 14 298 1.6 8.0 0.00 0.00 0.00 79 1018.3
20260507011150 14 289 1.6 8.0 0.00 0.00 0.00 79 1018.3
20260507010649 14 294 3.2 8.0 0.00 0.00 0.00 79 1018.4
20260507010148 14 326 4.8 8.0 0.00 0.00 0.00 79 1018.4
20260507005649 14 306 6.4 8.0 0.00 0.00 0.00 79 1018.5
20260507005148 14 278 4.8 9.7 0.00 0.00 0.00 79 1018.5
20260507004648 15 323 3.2 9.7 0.00 0.00 0.00 79 1018.4
20260507004150 15 287 3.2 9.7 0.00 0.00 0.00 79 1018.4
20260507003648 15 289 6.4 9.7 0.00 0.00 0.00 79 1018.5
20260507003149 15 299 3.2 9.7 0.00 0.00 0.00 80 1018.5
20260507002149 14 284 6.4 9.7 0.00 0.00 0.00 80 1018.5
20260507001648 14 292 8.0 9.7 0.00 0.00 0.00 80 1018.5
20260507001150 14 308 4.8 9.7 0.00 0.00 0.00 80 1018.6
20260507000149 14 310 6.4 9.7 0.00 0.00 0.00 80 1018.6
20260506235649 14 302 6.4 9.7 0.00 0.00 0.00 80 1018.6
20260506235148 14 303 8.0 11.3 0.00 0.00 0.00 80 1018.6
20260506234648 14 299 6.4 11.3 0.00 0.00 0.00 80 1018.6
20260506234151 14 308 4.8 11.3 0.00 0.00 0.00 79 1018.7
20260506233648 14 289 4.8 11.3 0.00 0.00 0.00 79 1018.7
20260506233149 14 288 8.0 12.9 0.00 0.00 0.00 79 1018.7
20260506232649 14 306 8.0 12.9 0.00 0.00 0.00 80 1018.7
20260506232148 14 301 8.0 12.9 0.00 0.00 0.00 79 1018.7
20260506231649 14 271 6.4 12.9 0.00 0.00 0.00 79 1018.8
20260506231150 14 296 4.8 12.9 0.00 0.00 0.00 79 1018.7
20260506230148 14 287 9.7 12.9 0.00 0.00 0.00 79 1018.8
20260506225649 14 315 6.4 12.9 0.00 0.00 0.00 79 1018.9
20260506225148 14 313 6.4 11.3 0.00 0.00 0.00 79 1018.8
20260506224150 14 306 6.4 11.3 0.00 0.00 0.00 78 1018.9
20260506223648 15 306 8.0 9.7 0.00 0.00 0.00 78 1019.0
20260506223149 15 299 6.4 14.5 0.00 0.00 0.00 78 1019.0
20260506222649 15 295 6.4 14.5 0.00 0.00 0.00 78 1019.1
20260506222148 15 294 8.0 14.5 0.00 0.00 0.00 78 1019.1
20260506221648 15 292 8.0 12.9 0.00 0.00 0.00 78 1019.1
20260506221150 15 288 6.4 12.9 0.00 0.00 0.00 78 1019.1
20260506220648 15 320 4.8 11.3 0.00 0.00 0.00 78 1019.0
20260506215649 15 274 9.7 12.9 0.00 0.00 0.00 78 1019.0
20260506215150 15 296 8.0 12.9 0.00 0.00 0.00 78 1018.9
20260506214649 15 295 6.4 14.5 0.00 0.00 0.00 77 1018.9
20260506214150 15 295 6.4 14.5 0.00 0.00 0.00 78 1018.8
20260506213148 15 295 9.7 12.9 0.00 0.00 0.00 78 1018.8
20260506212650 15 298 9.7 12.9 0.00 0.00 0.00 78 1018.8
20260506212149 15 301 8.0 11.3 0.00 0.00 0.00 78 1018.7
20260506211150 15 310 6.4 12.9 0.00 0.00 0.00 77 1018.8
20260506210648 15 291 6.4 12.9 0.00 0.00 0.00 77 1018.8
20260506210148 15 302 6.4 12.9 0.00 0.00 0.00 77 1018.8
20260506205148 15 274 8.0 9.7 0.00 0.00 0.00 77 1018.8
20260506204648 15 295 6.4 9.7 0.00 0.00 0.00 77 1018.8
20260506204150 15 294 4.8 9.7 0.00 0.00 0.00 76 1018.7
20260506203648 15 282 6.4 9.7 0.00 0.00 0.00 77 1018.6
20260506203149 15 288 8.0 11.3 0.00 0.00 0.00 78 1018.6